This demonstration page uses our WeatherBlox Daily Observations layout. Learn more.

Left ArrowRight Arrow

Hourly Observations for April 19, 2021

Temp ( °F °C ) Dew Point ( °F °C ) Humidity (%) Winds ( mph kmh ) Pressure ( in mb ) Visibility ( mi km ) Precip ( " mm )
12:38 am 00:38 Mostly Clear 50 10 35 1.7 57 57 N 13 20 29.98 1015 10 16 0.00 0.00
12:49 am 00:49 Clear 48 9 37 3 66 66 NNE 16 26 29.99 1015 10 16 0.00 0.00
12:53 am 00:53 Clear 47 8.3 38 3.3 71 71 NNE 17 28 29.98 1015 10 16 0.00 0.00
1:00 am 01:00 Clear 47 8.3 38 3.3 71 71 NNE 16 26 30.00 1016 10 16 0.00 0.00
1:53 am 01:53 Clear 41 5 36 2.2 82 82 NNE 15 24 30.01 1016 10 16 0.00 0.00
2:53 am 02:53 Clear 39 3.9 34 1.1 82 82 NNE 17 28 30.00 1016 10 16 0.00 0.00
3:53 am 03:53 Clear 37 2.8 33 0.6 86 86 NNE 16 26 30.01 1016 10 16 0.00 0.00
4:23 am 04:23 Mostly Cloudy 37 3 32 0 81 81 NNE 18 30 30.07 1018 10 16 0.00 0.00
4:53 am 04:53 Cloudy 37 2.8 31 -0.6 79 79 NNE 23 37 30.03 1017 10 16 0.00 0.00
5:53 am 05:53 Cloudy 36 2.2 31 -0.6 82 82 NNE 21 33 30.04 1017 10 16 0.00 0.00
6:27 am 06:27 Mostly Cloudy 34 1.1 29 -1.7 82 82 N 25 41 30.14 1021 10 16 0.00 0.00
6:53 am 06:53 Cloudy 33 0.6 26 -3.3 75 75 N 21 33 30.09 1019 10 16 0.00 0.00
7:53 am 07:53 Cloudy 33 0.6 27 -2.8 78 78 N 20 31 30.12 1020 10 16 0.00 0.00
8:53 am 08:53 Cloudy 32 0 23 -5 69 69 N 26 43 30.15 1021 10 16 0.00 0.00
9:53 am 09:53 Cloudy 31 -0.6 21 -6.1 67 67 NNE 22 35 30.16 1022 10 16 0.00 0.00
10:21 am 10:21 Cloudy 32 0 22 -5.6 66 66 N 20 31 30.23 1024 10 16 0.00 0.00
10:34 am 10:34 Cloudy 32 0 21 -6 64 64 N 23 37 30.24 1024 10 16 0.00 0.00
10:53 am 10:53 Cloudy 33 0.6 23 -5 66 66 N 21 33 30.17 1022 10 16 0.00 0.00
11:22 am 11:22 Cloudy 34 1.1 23 -5 64 64 NNE 20 31 30.23 1024 10 16 0.00 0.00
11:53 am 11:53 Cloudy with Light Snow 32 0 25 -3.9 75 75 N 18 30 30.18 1022 3 4 0.00 0.00
12:02 pm 12:02 Cloudy with Light Snow 32 0 27 -3 80 80 N 17 28 30.25 1024 2 3 0.00 0.00
12:12 pm 12:12 Cloudy with Light Snow 32 0 26 -3.3 79 79 N 18 30 30.25 1024 3 4 0.00 0.00
12:19 pm 12:19 Cloudy with Light Snow 32 0 26 -3.3 79 79 N 18 30 30.24 1024 3 5 0.00 0.00
12:53 pm 12:53 Cloudy 33 0.6 25 -3.9 72 72 NNE 20 31 30.19 1022 10 16 0.00 0.00
1:53 pm 13:53 Cloudy with Light Snow 34 1.1 25 -3.9 70 70 N 15 24 30.19 1023 8 13 0.00 0.00
2:53 pm 14:53 Windy with Snow Likely 33 0.6 27 -2.8 78 78 N 22 35 30.20 1023 4 6 0.00 0.00
3:03 pm 15:03 Windy with Snow Likely 33 0.6 27 -2.8 78 78 N 20 31 30.24 1024 3 4 0.00 0.00
3:15 pm 15:15 Windy with Snow Likely 32 0 26 -3.3 79 79 N 21 33 30.25 1024 2 3 0.00 0.00
3:30 pm 15:30 Cloudy with Light Snow 32 0 26 -3.3 79 79 N 18 30 30.26 1025 3 4 0.00 0.00
3:35 pm 15:35 Cloudy with Light Snow 32 0 26 -3.3 79 79 N 17 28 30.26 1025 3 4 0.00 0.00
3:44 pm 15:44 Cloudy with Light Snow 30 -1.1 26 -3.3 85 85 N 17 28 30.26 1025 1 2 0.00 0.00
3:51 pm 15:51 Cloudy with Light Snow 30 -1 27 -3 86 86 N 17 28 30.26 1025 1 1 0.00 0.00
3:53 pm 15:53 Cloudy with Light Snow 30 -1.1 27 -2.8 88 88 N 17 28 30.22 1023 1 1 0.00 0.00
4:07 pm 16:07 Cloudy with Light Snow 31 -0.6 27 -2.8 85 85 N 13 20 30.26 1025 1 2 0.00 0.00
4:14 pm 16:14 Cloudy with Light Snow 31 -0.6 28 -2.2 89 89 N 13 20 30.26 1025 1 2 0.00 0.00
4:32 pm 16:32 Cloudy with Light Snow 31 -0.6 28 -2.2 89 89 N 10 17 30.25 1024 1 2 0.00 0.00
4:53 pm 16:53 Cloudy with Light Snow 32 0 28 -2.2 85 85 N 14 22 30.20 1023 1 2 0.00 0.00
5:03 pm 17:03 Cloudy with Light Snow 32 0 29 -1.7 88 88 N 12 19 30.25 1024 1 2 0.00 0.00
5:33 pm 17:33 Cloudy with Light Snow 33 0.6 28 -2.2 82 82 N 15 24 30.23 1024 3 5 0.00 0.00
5:53 pm 17:53 Cloudy with Light Snow 32 0 28 -2.2 85 85 N 15 24 30.20 1023 2 3 0.00 0.00
6:09 pm 18:09 Cloudy with Light Snow 32 0 28 -2 87 87 N 10 17 30.24 1024 2 2 0.00 0.00
6:15 pm 18:15 Cloudy with Light Snow 32 0 29 -1.7 88 88 N 12 19 30.25 1024 3 4 0.00 0.00
6:23 pm 18:23 Cloudy with Light Snow 33 0.6 28 -2.2 82 82 N 10 17 30.24 1024 7 11 0.00 0.00
6:53 pm 18:53 Cloudy 33 0.6 27 -2.8 78 78 N 8 13 30.20 1023 10 16 0.00 0.00
7:53 pm 19:53 Cloudy 34 1.1 25 -3.9 70 70 NNE 9 15 30.19 1022 10 16 0.00 0.00
8:39 pm 20:39 Cloudy with Light Snow 31 -0.6 28 -2.2 89 89 N 18 30 30.26 1025 4 6 0.00 0.00
8:53 pm 20:53 Cloudy with Light Snow 31 -0.6 28 -2.2 89 89 N 14 22 30.23 1024 4 6 0.00 0.00
9:24 pm 21:24 Cloudy with Light Snow 30 -1.1 28 -2.2 92 92 N 12 19 30.27 1025 2 3 0.00 0.00
9:34 pm 21:34 Cloudy with Light Snow 30 -1.1 28 -2.2 92 92 N 10 17 30.28 1026 4 6 0.00 0.00
9:41 pm 21:41 Cloudy with Light Snow 30 -1.1 28 -2.2 92 92 NNW 9 15 30.29 1026 2 3 0.00 0.00
9:53 pm 21:53 Mostly Cloudy with Light Snow 30 -1.1 28 -2.2 92 92 NNW 8 13 30.27 1025 1 2 0.00 0.00
10:05 pm 22:05 Mostly Cloudy with Light Snow 30 -1.1 29 -1.7 96 96 NNW 9 15 30.30 1026 1 1 0.01 0.25
10:19 pm 22:19 Mostly Cloudy with Light Snow 30 -1.1 29 -1.7 96 96 NW 7 11 30.30 1026 1 2 0.02 0.51
10:34 pm 22:34 Cloudy with Light Snow 30 -1.1 29 -1.7 96 96 WNW 6 9 30.29 1026 2 2 0.02 0.51
10:53 pm 22:53 Mostly Cloudy with Light Snow 30 -1.1 28 -2.2 92 92 NW 9 15 30.27 1025 1 2 0.02 0.51
11:53 pm 23:53 Mostly Cloudy with Light Snow 30 -1.1 28 -2.2 92 92 NW 8 13 30.28 1025 1 2 0.01 0.25

Powered by AerisWeather